Location: Leedale
(52.5833°N, 114.4833°W)
Time: 07:56:07
(UTC+00:00)

Envisat - Pass Details

Date: 16 August 2024
Orbit: 762 x 764 km, 98.3° (Epoch: 08 September)

Event Time Altitude Azimuth Distance (km) Brightness Sun altitude
Rises 09:41:13 0° 25° (NNE) 3,240 7.9 -19.1°
Reaches altitude 10° 09:44:09 10° 42° (NE) 2,308 6.7 -18.9°
Maximum altitude 09:47:50 20° 89° (E) 1,717 5.2 -18.6°
Drops below altitude 10° 09:51:30 10° 136° (SE) 2,295 5.3 -18.3°
Enters shadow 09:53:29 - 149° (SSE) 2,904 5.8 -18.1°
